Weather History for Quillayute, WA

Change the Weather History Date:

Sunday, December 22, 2013

  Actual Average Record
Temperature  
Mean Temperature 49 °F 40 °F  
Max Temperature 51 °F 46 °F 56 °F (1986)
Min Temperature 47 °F 34 °F 11 °F (1983)
Degree Days  
Heating Degree Days 16 25  
Month to date heating degree days 568 542  
Since 1 July heating degree days 1764 2256  
Cooling Degree Days 0 0  
Month to date cooling degree days 0 0  
Year to date cooling degree days 39 19  
Moisture  
Dew Point 46 °F    
Average Humidity 90    
Maximum Humidity 93    
Minimum Humidity 86    
Precipitation  
Precipitation 0.58 in 0.41 in 2.89 in (1969)
Month to date precipitation 4.35 9.34  
Year to date precipitation 86.83 95.89  
Sea Level Pressure  
Sea Level Pressure 30.23 in    
Wind  
Wind Speed 4 mph (South)    
Max Wind Speed 10 mph    
Max Gust Speed 16 mph    
Visibility 1 miles    
Events Fog , Rain    
T = Trace of Precipitation, MM = Missing Value Source: NWS Daily Summary

Daily Weather History Graph

Daily Weather History Graph

Search for Another Location

Airport:

Trip Planner

Search our weather history database for the weather conditions in past years. The results will help you decide how hot, cold, wet, or windy it might be!

Date:

Astronomy

Dec. 22, 2013 Rise Set
Actual Time 8:05 AM PST 4:28 PM PST
Civil Twilight 7:29 AM PST 5:04 PM PST
Nautical Twilight 6:49 AM PST 5:44 PM PST
Astronomical Twilight 6:11 AM PST 6:22 PM PST
Moon 10:08 PM PST (12/22) 10:44 AM PST (12/22)
Length of Visible Light 9h 35m
Length of Day
8h 22m
Waning Gibbous, 76% of the Moon is Illuminated
Dec 22
Waning Gibbous
Dec 25
Last Quarter
Jan 1
New
Jan 7
First Quarter
Jan 15
Full

Hourly Weather History & Observations

Time (PST) Temp. Dew Point Humidity Pressure Visibility Wind Dir Wind Speed Gust Speed Precip Events Conditions
12:02 AM 46.9 °F 44.1 °F 90% 30.15 in 1.8 mi ESE 3.5 mph - 0.00 in Rain Light Rain
12:17 AM 46.9 °F 44.1 °F 90% 30.15 in 1.5 mi ESE 4.6 mph - 0.00 in   Overcast
12:38 AM 46.9 °F 44.1 °F 90% 30.15 in 1.2 mi SE 4.6 mph - 0.01 in   Overcast
12:53 AM 46.9 °F 44.1 °F 90% 30.15 in 1.0 mi ESE 4.6 mph - 0.01 in Rain Light Rain
1:53 AM 46.9 °F 44.1 °F 90% 30.15 in 1.2 mi ESE 3.5 mph - 0.02 in   Overcast
2:04 AM 46.9 °F 44.1 °F 90% 30.14 in 1.5 mi Calm Calm - N/A   Overcast
2:22 AM 46.9 °F 45.0 °F 93% 30.15 in 2.5 mi Calm Calm - N/A   Overcast
2:30 AM 46.9 °F 45.0 °F 93% 30.15 in 4.0 mi SE 3.5 mph - N/A   Overcast
2:53 AM 46.9 °F 45.0 °F 93% 30.17 in 4.0 mi Calm Calm - N/A   Overcast
3:10 AM 48.0 °F 45.0 °F 89% 30.16 in 1.8 mi Calm Calm - N/A   Overcast
3:23 AM 48.0 °F 45.0 °F 89% 30.17 in 1.2 mi Calm Calm - N/A   Overcast
3:53 AM 48.0 °F 45.0 °F 89% 30.17 in 1.0 mi SSE 3.5 mph - N/A   Overcast
4:53 AM 48.0 °F 45.0 °F 89% 30.18 in 1.0 mi Calm Calm - 0.01 in   Mist
4:58 AM 48.0 °F 45.0 °F 89% 30.17 in 0.8 mi Calm Calm - N/A   Mist
5:05 AM 48.0 °F 45.0 °F 89% 30.17 in 0.8 mi Calm Calm - N/A   Mist
5:53 AM 48.0 °F 45.0 °F 89% 30.18 in 1.0 mi SSW 3.5 mph - N/A   Overcast
6:01 AM 48.0 °F 46.0 °F 93% 30.18 in 2.0 mi Calm Calm - N/A   Overcast
6:27 AM 48.0 °F 46.0 °F 93% 30.19 in 1.5 mi Calm Calm - 0.00 in Rain Light Rain
6:53 AM 48.0 °F 46.0 °F 93% 30.20 in 1.2 mi Calm Calm - 0.00 in   Overcast
7:33 AM 48.0 °F 46.0 °F 93% 30.20 in 1.5 mi Variable 3.5 mph - N/A   Overcast
7:40 AM 48.0 °F 46.0 °F 93% 30.20 in 1.2 mi South 3.5 mph - N/A   Overcast
7:53 AM 48.0 °F 46.0 °F 93% 30.21 in 1.2 mi Calm Calm - N/A   Overcast
8:06 AM 48.0 °F 46.0 °F 93% 30.21 in 1.5 mi Calm Calm - N/A   Overcast
8:28 AM 48.0 °F 46.0 °F 93% 30.22 in 0.8 mi Calm Calm - N/A   Overcast
8:53 AM 48.9 °F 46.0 °F 90% 30.23 in 0.5 mi Calm Calm - N/A Fog Fog
9:13 AM 48.9 °F 46.0 °F 90% 30.24 in 1.2 mi Variable 3.5 mph - N/A   Overcast
9:31 AM 48.9 °F 46.0 °F 90% 30.24 in 0.5 mi South 4.6 mph - N/A Fog Fog
9:53 AM 48.9 °F 46.9 °F 93% 30.26 in 1.0 mi South 4.6 mph - N/A   Overcast
10:01 AM 48.9 °F 46.9 °F 93% 30.25 in 0.5 mi SSE 4.6 mph - N/A Fog Fog
10:53 AM 50.0 °F 46.9 °F 89% 30.27 in 0.5 mi Variable 3.5 mph - N/A Fog Fog
11:30 AM 50.0 °F 48.0 °F 93% 30.26 in 1.2 mi South 4.6 mph - N/A   Overcast
11:37 AM 50.0 °F 48.0 °F 93% 30.26 in 1.8 mi South 4.6 mph - N/A   Overcast
11:53 AM 50.0 °F 46.9 °F 89% 30.26 in 1.2 mi South 4.6 mph - N/A   Overcast
12:24 PM 50.0 °F 48.0 °F 93% 30.26 in 0.8 mi South 4.6 mph - N/A   Overcast
12:53 PM 50.0 °F 48.0 °F 93% 30.27 in 0.5 mi South 6.9 mph - N/A Fog Fog
1:41 PM 50.0 °F 46.9 °F 89% 30.26 in 0.5 mi South 6.9 mph - 0.04 in Fog , Rain Light Rain
1:53 PM 50.0 °F 48.0 °F 93% 30.27 in 0.8 mi South 6.9 mph - 0.04 in Rain Light Rain
2:53 PM 50.0 °F 46.9 °F 89% 30.27 in 0.5 mi South 4.6 mph - 0.03 in Fog , Rain Light Rain
3:05 PM 50.0 °F 46.9 °F 89% 30.27 in 1.0 mi South 5.8 mph - 0.00 in Rain Light Rain
3:27 PM 50.0 °F 46.9 °F 89% 30.27 in 0.8 mi South 5.8 mph - 0.01 in Rain Light Rain
3:53 PM 50.0 °F 46.9 °F 89% 30.28 in 0.5 mi South 3.5 mph - 0.02 in Fog , Rain Light Rain
4:40 PM 50.0 °F 46.9 °F 89% 30.28 in 1.2 mi Calm Calm - 0.03 in Rain Light Rain
4:53 PM 50.0 °F 46.9 °F 89% 30.28 in 1.2 mi Calm Calm - 0.04 in Rain Light Rain
5:07 PM 50.0 °F 46.9 °F 89% 30.27 in 1.5 mi Calm Calm - 0.00 in   Overcast
5:16 PM 50.0 °F 46.9 °F 89% 30.28 in 1.0 mi Calm Calm - 0.00 in Rain Light Rain
5:35 PM 50.0 °F 46.9 °F 89% 30.28 in 1.5 mi Calm Calm - 0.01 in Rain Light Rain
5:42 PM 50.0 °F 46.9 °F 89% 30.28 in 1.5 mi Variable 3.5 mph - 0.02 in Rain Light Rain
5:53 PM 50.0 °F 46.9 °F 89% 30.28 in 1.2 mi Calm Calm - 0.02 in Rain Light Rain
6:11 PM 50.0 °F 46.9 °F 89% 30.28 in 1.5 mi South 4.6 mph - 0.01 in Rain Light Rain
6:29 PM 50.0 °F 46.9 °F 89% 30.29 in 1.2 mi SSW 4.6 mph - 0.02 in Rain Light Rain
6:32 PM 50.0 °F 46.9 °F 89% 30.29 in 1.5 mi SSW 5.8 mph - 0.02 in Rain Light Rain
6:48 PM 50.0 °F 46.4 °F 87% 30.28 in 1.2 mi Variable 3.5 mph - 0.03 in Rain Light Rain
6:53 PM 50.0 °F 46.9 °F 89% 30.27 in 1.5 mi Variable 6.9 mph - 0.03 in Rain Light Rain
7:18 PM 50.0 °F 46.9 °F 89% 30.27 in 1.8 mi SSE 4.6 mph - 0.01 in Rain Light Rain
7:41 PM 50.0 °F 46.9 °F 89% 30.26 in 1.2 mi South 4.6 mph - 0.01 in Rain Light Rain
7:53 PM 50.0 °F 46.9 °F 89% 30.27 in 1.0 mi South 6.9 mph - 0.03 in Rain Light Rain
8:53 PM 50.0 °F 46.9 °F 89% 30.26 in 1.0 mi South 6.9 mph - 0.04 in Rain Light Rain
9:53 PM 50.0 °F 46.9 °F 89% 30.26 in 1.0 mi South 4.6 mph - 0.09 in Rain Light Rain
10:19 PM 50.0 °F 46.9 °F 89% 30.25 in 1.5 mi South 5.8 mph - 0.06 in Rain Light Rain
10:26 PM 50.0 °F 46.9 °F 89% 30.25 in 1.2 mi South 8.1 mph - 0.06 in Rain Light Rain
10:53 PM 50.0 °F 46.9 °F 89% 30.25 in 1.2 mi South 6.9 mph - 0.11 in Rain Rain
11:06 PM 50.0 °F 46.9 °F 89% 30.24 in 1.5 mi South 8.1 mph - 0.03 in Rain Rain
11:53 PM 50.0 °F 48.0 °F 93% 30.23 in 2.5 mi SSW 8.1 mph - 0.09 in Rain Light Rain